Stations météo

réclame
Mon MeteoGroup
Greifswald, Allemagne (10184): Température de l'air & dewpoint: 03.07.2020 07:00:00 - 09.07.2020 07:00:00 (CEST)Greifswald, Allemagne (10184): Température de l'air 5cm & Température de l'air -5cm: 03.07.2020 07:00:00 - 09.07.2020 07:00:00 (CEST)Greifswald, Allemagne (10184): Température de l'air -20cm & Température de l'air -100cm: 03.07.2020 07:00:00 - 09.07.2020 07:00:00 (CEST)Greifswald, Allemagne (10184): Vitesse du vent & gusts: 03.07.2020 07:00:00 - 09.07.2020 07:00:00 (CEST)Greifswald, Allemagne (10184): Direction du vent: 03.07.2020 07:00:00 - 09.07.2020 07:00:00 (CEST)Greifswald, Allemagne (10184): reduced air pressure: 03.07.2020 07:00:00 - 09.07.2020 07:00:00 (CEST)Greifswald, Allemagne (10184): visibility: 03.07.2020 07:00:00 - 09.07.2020 07:00:00 (CEST)Greifswald, Allemagne (10184): Ensoleillement: 03.07.2020 07:00:00 - 09.07.2020 07:00:00 (CEST)Greifswald, Allemagne (10184): Quantités de précipitations: 03.07.2020 07:00:00 - 09.07.2020 07:00:00 (CEST)
Date & Time tt [°C] td [°C] tt 5cm [°C] tt -5cm [°C] tt -20cm [°C] tt -100cm [°C] ff [km/h] ff [knt] fx [km/h] fx [knt] dd ppp [hPa] vv [km] sd [min] rr [mm]
09.07.2020 07:00:00 11,9 9,1 12,2 13,7 16,2 17,6 5 3 9 5 WSW 1015,4 54 15 0,0
09.07.2020 06:00:00 10,3 9,2 9,3 13,0 16,4 17,6 5 3 8 5 SW 1015,5 45 0 0,0
09.07.2020 05:00:00 10,4 9,4 8,4 13,3 16,7 17,6 5 3 9 5 SW 1015,4 40 0 0,0
09.07.2020 04:00:00 11,0 9,7 9,6 13,6 17,0 17,6 4 2 8 4 SW 1015,3 40 0 0,0
09.07.2020 03:00:00 10,8 9,7 8,2 14,0 17,3 17,6 4 2 9 5 SW 1015,3 43 0 0,0
09.07.2020 02:00:00 11,9 10,4 10,7 14,6 17,7 17,6 4 2 9 5 SW 1015,4 48 0 0,0
09.07.2020 01:00:00 11,8 10,2 10,0 14,8 18,0 17,7 4 2 11 6 SSW 1015,5 40 0 0,0
09.07.2020 00:00:00 11,8 9,9 9,5 15,3 18,5 17,7 5 3 10 6 SSW 1015,7 55 0 0,0
08.07.2020 23:00:00 12,6 9,6 9,4 16,2 18,9 17,7 6 4 12 6 SSW 1015,4 55 0 0,0
08.07.2020 22:00:00 14,7 9,0 12,9 17,4 19,2 17,7 6 3 16 8 W 1015,2 65 8 0,0
08.07.2020 21:00:00 15,1 8,5 13,9 18,6 19,4 17,7 12 6 23 12 W 1014,7 65 48 0,0
08.07.2020 20:00:00 16,6 8,4 16,7 20,4 19,5 17,7 11 6 24 13 WNW 1014,3 60 52 0,0
08.07.2020 19:00:00 16,9 8,7 17,9 20,6 19,4 17,7 12 6 23 12 WNW 1014,3 60 1 0,0
08.07.2020 18:00:00 17,0 8,5 18,1 21,6 19,3 17,7 12 7 28 15 WNW 1014,1 52 15 0,0
08.07.2020 17:00:00 16,7 8,6 18,6 21,4 19,0 17,7 19 10 33 18 WNW 1014,2 64 7 0,0
08.07.2020 16:00:00 17,0 8,8 20,0 22,1 18,5 17,7 16 9 33 18 WNW 1013,9 55 24 0,0
08.07.2020 15:00:00 17,2 8,4 22,6 20,9 18,1 17,7 21 12 36 19 WNW 1013,9 60 16 0,0
08.07.2020 14:00:00 16,4 9,3 19,2 20,2 17,7 17,7 19 10 33 18 WNW 1013,8 70 10 0,0
08.07.2020 13:00:00 15,2 9,4 20,0 18,1 17,5 17,7 16 8 31 17 WNW 1013,7 55 4 0,0
08.07.2020 12:00:00 13,6 9,1 15,2 17,6 17,3 17,8 12 7 30 16 NW 1013,4 70 2 0,0
08.07.2020 11:00:00 15,1 8,4 15,9 18,4 17,0 17,8 18 10 33 18 W 1013,0 73 12 0,0
08.07.2020 10:00:00 14,9 9,0 16,9 17,7 16,6 17,8 19 11 34 18 WSW 1012,9 53 23 0,0
08.07.2020 09:00:00 14,5 10,5 18,4 16,1 16,4 17,8 18 10 29 15 WSW 1012,8 55 32 0,0
08.07.2020 08:00:00 12,9 10,1 16,0 14,5 16,4 17,8 17 9 27 14 WSW 1012,8 52 9 0,0
08.07.2020 07:00:00 11,3 9,7 11,2 13,3 16,6 17,8 13 7 23 12 WSW 1012,7 40 15 0,0
08.07.2020 06:00:00 10,7 9,6 9,8 12,8 17,0 17,8 10 5 20 11 WSW 1012,8 33 1 0,0
08.07.2020 05:00:00 10,9 9,7 9,9 13,4 17,3 17,8 9 5 24 13 SW 1012,8 38 0 0,0
08.07.2020 04:00:00 11,4 10,0 10,8 14,0 17,6 17,8 13 7 23 12 WSW 1012,9 55 0 0,0
08.07.2020 03:00:00 11,7 10,4 11,1 14,4 18,0 17,8 14 7 27 14 WSW 1013,3 27 0 0,0
08.07.2020 02:00:00 11,9 10,6 11,1 14,8 18,4 17,8 13 7 22 12 WSW 1013,4 45 0 0,3
08.07.2020 01:00:00 12,2 10,9 11,6 15,2 18,8 17,8 12 7 26 14 WSW 1013,5 48 0 0,0
08.07.2020 00:00:00 12,3 11,2 11,8 15,7 19,3 17,9 14 7 27 15 WSW 1013,5 43 0 0,2
07.07.2020 23:00:00 12,3 11,2 11,7 16,2 19,8 17,9 11 6 24 13 SW 1013,5 50 0 0,0
07.07.2020 22:00:00 12,3 11,0 11,9 17,4 20,4 17,9 10 5 17 9 SW 1013,8 65 0 0,4
07.07.2020 21:00:00 12,6 11,4 12,3 18,4 21,0 17,9 11 6 24 13 WSW 1014,2 19 0 1,2
07.07.2020 20:00:00 13,0 10,9 12,4 20,4 21,4 17,9 23 13 44 24 W 1014,5 17 0 0,7
07.07.2020 19:00:00 18,0 7,3 18,1 22,8 21,5 17,9 10 6 39 21 SW 1013,8 65 0 0,0
07.07.2020 18:00:00 18,6 6,4 19,5 24,6 21,4 17,9 16 9 35 19 WSW 1014,4 60 4 0,0
07.07.2020 17:00:00 20,1 5,8 23,5 27,1 20,7 17,9 18 10 40 22 WSW 1014,8 60 35 0,0
07.07.2020 16:00:00 20,7 7,0 26,1 26,1 20,0 17,9 22 12 38 20 W 1015,1 60 22 0,0
07.07.2020 15:00:00 18,6 5,4 21,9 24,9 19,3 17,9 18 10 41 22 WSW 1015,5 60 28 0,0
07.07.2020 14:00:00 17,5 5,4 20,3 23,7 18,6 17,9 18 10 38 20 W 1016,2 50 37 0,0
07.07.2020 13:00:00 17,4 6,7 21,3 22,4 17,9 18,0 22 12 39 21 W 1016,4 50 42 0,0
07.07.2020 12:00:00 16,3 8,7 20,7 19,6 17,3 18,0 16 9 42 23 W 1016,4 44 17 0,0
07.07.2020 11:00:00 15,7 8,2 18,1 19,7 16,8 18,0 22 12 37 20 W 1016,4 43 36 0,0
07.07.2020 10:00:00 15,4 8,5 18,4 17,4 16,4 18,0 18 10 34 18 W 1016,1 50 40 0,0
07.07.2020 09:00:00 14,0 9,0 16,1 15,5 16,2 18,0 19 11 29 16 W 1016,2 40 16 0,0
07.07.2020 08:00:00 12,7 9,0 13,1 14,2 16,2 18,0 15 8 24 13 WSW 1016,3 32 1 0,0
07.07.2020 07:00:00 12,0 8,9 11,9 13,4 16,4 18,0 14 7 24 13 W 1015,9 28 22 0,0
07.07.2020 06:00:00 11,2 9,2 10,6 12,9 16,6 18,0 14 8 24 13 WSW 1015,2 32 13 0,0
07.07.2020 05:00:00 11,1 9,1 9,7 13,2 16,9 18,0 16 8 26 14 WSW 1014,7 30 0 0,0
07.07.2020 04:00:00 11,3 9,2 10,3 13,6 17,2 18,0 12 7 23 12 WSW 1014,3 27 0 0,3
07.07.2020 03:00:00 11,9 9,0 10,9 13,8 17,5 18,0 14 7 30 16 WSW 1014,0 30 0 0,1
07.07.2020 02:00:00 12,3 8,5 11,5 13,8 17,9 18,0 17 9 26 14 WSW 1013,6 30 0 0,0
07.07.2020 01:00:00 12,6 9,2 11,1 14,5 18,3 18,0 18 10 31 17 WSW 1013,3 30 0 0,0
07.07.2020 00:00:00 13,2 9,5 12,4 14,9 18,8 18,0 15 8 27 15 W 1012,6 28 0 0,0
06.07.2020 23:00:00 13,3 10,0 11,9 15,7 19,2 18,1 16 8 35 19 W 1011,9 30 0 0,0
06.07.2020 22:00:00 13,9 9,2 13,3 16,7 19,7 18,1 22 12 38 21 W 1011,5 50 0 0,0
06.07.2020 21:00:00 15,4 9,4 14,5 17,8 20,0 18,1 18 10 37 20 W 1010,5 55 22 0,0
06.07.2020 20:00:00 16,3 9,8 14,7 19,5 20,3 18,1 23 12 44 24 W 1010,1 60 18 0,1
06.07.2020 19:00:00 17,6 9,3 17,9 20,6 20,4 18,1 19 10 41 22 W 1009,3 60 17 0,0
06.07.2020 18:00:00 17,7 10,4 18,8 21,2 20,4 18,1 19 11 40 22 WSW 1008,8 50 27 0,0
06.07.2020 17:00:00 17,6 9,5 17,7 21,4 20,3 18,1 21 11 47 25 WSW 1008,5 73 20 0,1
06.07.2020 16:00:00 18,6 8,7 19,9 22,7 20,0 18,1 26 14 49 26 W 1007,6 75 45 0,0
06.07.2020 15:00:00 18,3 10,2 21,1 22,8 19,6 18,1 30 16 51 27 W 1007,3 54 54 0,0
06.07.2020 14:00:00 16,1 9,9 18,3 21,4 19,3 18,1 25 13 49 26 WSW 1007,2 65 24 0,7
06.07.2020 13:00:00 13,6 11,1 13,3 22,0 18,8 18,1 31 17 54 29 W 1006,9 7 21 1,2
06.07.2020 12:00:00 18,7 8,8 22,4 21,5 18,3 18,1 27 15 55 30 WSW 1005,9 62 41 0,0
06.07.2020 11:00:00 17,0 8,7 17,3 19,7 17,9 18,1 29 16 49 26 WSW 1005,8 53 41 0,0
06.07.2020 10:00:00 17,2 8,9 19,5 18,5 17,5 18,2 27 14 47 26 WSW 1005,6 69 58 0,0
06.07.2020 09:00:00 16,2 10,1 18,4 16,3 17,4 18,2 20 11 36 19 WSW 1005,7 50 19 0,0
06.07.2020 08:00:00 15,3 10,1 15,5 15,7 17,4 18,2 18 10 32 18 WSW 1005,4 53 23 0,0
06.07.2020 07:00:00 14,6 10,1 14,0 14,7 17,6 18,2 16 8 30 16 SW 1005,3 45 2 0,0
06.07.2020 06:00:00 14,2 9,9 13,5 14,4 17,9 18,2 10 6 20 11 SSW 1005,4 45 13 0,0
06.07.2020 05:00:00 14,1 9,5 12,6 14,6 18,3 18,2 9 5 22 12 SSW 1005,2 50 0 0,0
06.07.2020 04:00:00 14,7 9,8 14,0 15,0 18,6 18,2 9 5 17 9 SW 1005,9 45 0 0,0
06.07.2020 03:00:00 15,1 9,8 14,1 15,7 19,0 18,2 9 5 22 12 SW 1006,3 50 0 0,0
06.07.2020 02:00:00 15,7 9,4 14,7 16,2 19,3 18,2 11 6 26 14 WSW 1006,4 45 0 0,0
06.07.2020 01:00:00 16,5 12,5 15,9 17,1 19,7 18,2 11 6 21 11 WSW 1006,5 40 0 0,0
06.07.2020 00:00:00 16,7 12,9 15,9 17,2 20,1 18,2 8 4 17 9 SW 1006,4 40 0 0,0
05.07.2020 23:00:00 17,7 12,6 15,8 18,0 20,5 18,2 14 8 24 13 W 1006,6 45 0 0,0
05.07.2020 22:00:00 18,4 12,5 16,9 18,8 20,9 18,2 17 9 31 17 W 1006,4 45 7 0,0
05.07.2020 21:00:00 19,7 13,2 18,7 20,6 21,1 18,2 24 13 38 20 W 1005,8 50 59 0,0
05.07.2020 20:00:00 21,7 14,4 21,2 21,9 21,1 18,3 20 11 41 22 W 1005,1 75 33 0,0
05.07.2020 19:00:00 22,7 14,5 22,7 22,7 21,0 18,3 26 14 46 25 WSW 1005,3 65 31 0,0
05.07.2020 18:00:00 22,4 16,1 23,4 22,9 20,8 18,3 22 12 45 24 WSW 1005,5 75 18 0,0
05.07.2020 17:00:00 21,3 16,9 22,0 23,2 20,5 18,3 21 11 40 22 SW 1005,8 60 19 0,0
05.07.2020 16:00:00 19,9 17,3 19,2 21,5 20,4 18,3 23 12 41 22 WSW 1006,0 25 0 0,1
05.07.2020 15:00:00 19,0 17,9 18,9 21,0 20,4 18,3 21 12 41 22 WSW 1006,2 3,8 0 0,7
05.07.2020 14:00:00 20,2 17,6 19,1 21,2 20,3 18,3 18 10 42 23 WSW 1005,7 25 0 0,1
05.07.2020 13:00:00 22,4 16,6 23,0 22,4 20,0 18,3 25 13 54 29 SW 1005,1 67 3 0,0
05.07.2020 12:00:00 21,8 17,1 22,9 21,9 19,6 18,3 16 9 42 23 SW 1005,4 65 13 0,0
05.07.2020 11:00:00 20,5 17,4 20,8 21,2 19,2 18,3 17 9 35 19 SW 1005,8 70 2 0,0
05.07.2020 10:00:00 19,2 17,9 19,2 20,1 19,0 18,3 19 10 35 19 SW 1006,1 10 0 0,1
05.07.2020 09:00:00 18,5 17,5 18,4 18,8 18,9 18,3 14 8 30 16 SSW 1006,3 3,8 0 0,1
05.07.2020 08:00:00 18,0 17,1 17,6 18,3 18,9 18,3 15 8 28 15 SSW 1006,7 7 0 0,1
05.07.2020 07:00:00 17,9 16,8 17,3 18,0 18,9 18,3 13 7 27 15 SSW 1007,0 40 0 0,0
05.07.2020 06:00:00 17,5 16,7 17,0 17,7 19,0 18,3 13 7 25 14 SSW 1007,5 36 0 0,1
05.07.2020 05:00:00 17,4 16,5 16,8 17,7 19,1 18,4 13 7 27 15 SSW 1007,8 11 0 0,1
05.07.2020 04:00:00 17,3 16,3 16,6 17,7 19,2 18,4 12 7 23 12 SSW 1008,3 16 0 0,0
05.07.2020 03:00:00 17,2 16,2 16,5 17,6 19,4 18,4 13 7 27 15 SSW 1008,9 12 0 0,6
05.07.2020 02:00:00 17,5 15,9 16,4 17,7 19,5 18,4 14 8 26 14 SW 1009,3 22 0 0,7
05.07.2020 01:00:00 17,7 15,2 17,1 17,8 19,7 18,4 11 6 24 13 SW 1009,6 59 0 0,0
05.07.2020 00:00:00 17,9 15,1 17,0 18,2 19,9 18,4 13 7 24 13 WSW 1009,8 63 0 0,0
04.07.2020 23:00:00 18,0 15,2 16,6 18,5 20,2 18,4 12 6 25 14 WSW 1010,3 56 0 0,0
04.07.2020 22:00:00 17,5 15,7 16,6 18,9 20,4 18,4 6 4 16 9 SSW 1010,2 36 0 0,1
04.07.2020 21:00:00 17,3 16,0 16,7 19,2 20,6 18,4 10 5 22 12 SSW 1010,3 19 0 0,2
04.07.2020 20:00:00 17,5 15,7 16,9 19,8 20,8 18,4 12 7 22 12 SSW 1010,6 34 0 1,1
04.07.2020 19:00:00 18,0 15,1 16,7 20,5 20,9 18,4 12 7 31 17 WSW 1010,8 6 0 0,7
04.07.2020 18:00:00 20,0 13,7 20,2 21,3 20,9 18,4 16 9 37 20 WSW 1010,7 60 0 0,0
04.07.2020 17:00:00 20,1 13,1 20,9 22,0 20,8 18,4 19 11 47 26 SW 1010,6 61 0 0,0
04.07.2020 16:00:00 20,5 12,9 21,3 22,6 20,5 18,4 22 12 45 24 SW 1010,8 52 0 0,0
04.07.2020 15:00:00 21,6 12,9 24,6 23,1 20,1 18,4 21 11 41 22 SW 1010,8 62 3 0,0
04.07.2020 14:00:00 19,9 12,9 22,0 21,4 19,9 18,4 21 12 44 24 WSW 1011,5 71 0 0,0
04.07.2020 13:00:00 18,6 13,1 19,8 20,5 19,7 18,4 18 10 41 22 SSW 1012,1 48 0 0,0
04.07.2020 12:00:00 18,7 12,5 20,4 20,3 19,5 18,4 16 9 36 20 SW 1012,2 72 0 0,0
04.07.2020 11:00:00 18,1 12,1 19,0 19,5 19,3 18,4 18 10 39 21 WSW 1012,3 49 0 0,0
04.07.2020 10:00:00 18,4 11,9 19,3 19,1 19,2 18,4 16 9 36 19 WSW 1012,1 54 0 0,0
04.07.2020 09:00:00 18,3 12,0 18,8 18,5 19,1 18,4 17 9 35 19 SW 1012,1 59 0 0,0
04.07.2020 08:00:00 18,1 12,0 18,4 17,8 19,2 18,5 18 10 33 18 SW 1012,0 63 0 0,0
04.07.2020 07:00:00 17,8 12,3 17,7 17,3 19,3 18,5 15 8 32 18 SSW 1012,0 53 0 0,0
04.07.2020 06:00:00 17,7 12,4 17,2 17,1 19,5 18,5 16 9 29 16 SSW 1012,3 46 0 0,0
04.07.2020 05:00:00 17,5 12,7 16,9 17,2 19,7 18,5 14 7 27 15 SSW 1012,4 44 0 0,0
04.07.2020 04:00:00 17,4 12,9 16,6 17,4 19,9 18,5 13 7 23 12 SSW 1012,8 45 0 0,0
04.07.2020 03:00:00 17,9 12,8 17,0 17,7 20,2 18,5 9 5 22 12 SW 1013,2 50 0 0,0
04.07.2020 02:00:00 17,8 13,1 17,0 17,9 20,5 18,5 11 6 22 12 SW 1013,7 55 0 0,0
04.07.2020 01:00:00 17,2 13,5 16,6 18,4 20,8 18,5 7 4 16 9 SSW 1014,0 50 0 0,0
04.07.2020 00:00:00 16,7 13,5 16,3 18,8 21,0 18,5 5 3 11 6 SSW 1014,4 51 0 0,0
03.07.2020 23:00:00 16,6 14,0 16,3 19,2 21,4 18,5 6 3 11 6 SSE 1014,1 50 0 0,0
03.07.2020 22:00:00 16,7 13,9 16,2 19,6 21,7 18,5 4 2 14 8 S 1014,5 60 0 0,0
03.07.2020 21:00:00 17,4 13,0 16,0 20,0 22,1 18,5 14 8 38 21 WSW 1014,8 40 0 0,0
03.07.2020 20:00:00 20,1 12,4 19,4 21,3 22,4 18,5 8 4 20 11 WSW 1014,0 65 0 0,0
03.07.2020 19:00:00 20,5 11,6 20,5 22,6 22,5 18,5 14 8 23 12 WSW 1013,9 68 1 0,0
03.07.2020 18:00:00 20,5 11,5 21,5 23,9 22,5 18,5 12 7 26 14 WSW 1014,1 70 24 0,0
03.07.2020 17:00:00 20,8 11,8 23,4 24,5 22,3 18,5 14 7 28 15 WSW 1014,2 75 26 0,0
03.07.2020 16:00:00 19,7 11,4 21,3 23,6 22,2 18,5 14 8 26 14 WSW 1014,4 70 7 0,0
03.07.2020 15:00:00 19,8 11,1 22,0 24,3 21,9 18,5 16 9 28 15 W 1014,4 60 11 0,0
03.07.2020 14:00:00 20,1 11,4 23,6 24,9 21,5 18,5 16 8 28 15 WSW 1014,4 60 39 0,0
03.07.2020 13:00:00 18,6 12,0 21,1 23,0 21,2 18,5 16 9 26 14 WNW 1014,2 60 7 0,0
03.07.2020 12:00:00 19,8 11,4 24,8 23,6 20,8 18,5 13 7 24 13 WNW 1013,8 65 27 0,0
03.07.2020 11:00:00 17,7 12,4 18,2 22,1 20,4 18,5 10 5 22 12 NNW 1013,6 60 15 0,0
03.07.2020 10:00:00 18,4 12,4 22,7 21,7 20,0 18,5 10 6 20 11 NW 1013,2 65 44 0,0
03.07.2020 09:00:00 17,6 12,8 19,1 19,8 19,8 18,5 11 6 19 11 NW 1012,8 50 24 0,0
03.07.2020 08:00:00 16,2 14,7 16,2 18,6 19,9 18,5 11 6 21 12 W 1012,4 15 0 0,0
03.07.2020 07:00:00 15,8 15,1 16,0 17,7 20,0 18,5 10 5 19 10 WSW 1011,9 8 0 0,0

tt = Température de l'air
td = dewpoint
tt 5cm = Température de l'air 5cm
tt -5cm = Température de l'air -5cm
tt -20cm = Température de l'air -20cm
tt -100cm = Température de l'air -100cm
ff = Vitesse du vent
fx = gusts
dd = Direction du vent
ppp = reduced air pressure
vv = visibility
sd = Ensoleillement
rr = Quantités de précipitations

stations d'obs. à proximité